Location: ??????
(55.7522°N, 37.6156°E)
Time: 17:33:53
(UTC+00:00)

NOSS 2-1 (C) - Pass Details

Date: 14 June 2025
Orbit: 377 x 1697 km, 63.3° (Epoch: 13 July)

Event Time Altitude Azimuth Distance (km) Brightness Sun altitude
Rises 20:42:07 0° 307° (NW) 2,308 7.3 -10.3°
Reaches altitude 10° 20:43:58 10° 308° (NW) 1,506 6.3 -10.3°
Maximum altitude 20:47:12 90° 309° (NW) 484 3.0 -10.4°
Drops below altitude 10° 20:51:20 10° 129° (SE) 1,910 5.6 -10.5°
Enters shadow 20:52:02 - 130° (SE) 2,202 5.9 -10.5°
